Wind_Speed
36 38 43 41 27 19 12 9 13 9 4 3 5 6 4 5 7 6 9 4 8 8 10 12 12 15 15 15 17 16 15 14 12 13 13 14 11 11 10 10 10 9 8
31 29 31 29 23 24 20 16 15 13 11 10 9 7 7 5 8 6 10 10 9 10 10 12 13 13 14 14 14 13 13 14 15 13 12 12 11 12 13 12 11 7 8
32 27 29 20 18 27 26 20 22 17 12 12 15 14 15 14 14 13 16 16 13 11 13 12 12 13 14 13 13 13 14 14 14 11 10 11 11 10 8 5 5 4 5
26 26 27 26 21 30 28 26 26 23 18 16 15 14 13 13 17 12 10 13 13 11 10 11 13 13 14 14 15 15 16 14 13 13 14 15 13 9 7 11 8 9 6
22 26 26 24 29 36 34 27 30 25 25 25 22 19 16 16 14 12 12 13 13 12 13 14 14 14 15 16 16 14 12 13 13 15 15 16 14 8 6 8 3 4 5
21 22 24 27 21 23 39 29 26 29 29 27 25 22 20 18 13 13 14 12 13 14 15 15 15 15 15 16 16 15 14 13 13 12 13 12 8 9 6 5 4 3 8
14 19 20 19 15 11 10 16 19 23 26 23 21 21 21 17 13 14 14 13 14 14 15 15 14 14 16 17 16 15 12 12 13 12 11 12 11 10 9 9 9 7 6
12 14 10 12 9 9 12 12 15 22 22 20 20 17 16 14 14 16 16 16 16 15 15 15 14 15 14 14 14 14 13 12 12 13 13 14 12 13 10 11 11 9 8
15 16 13 12 14 14 18 23 22 17 17 16 18 15 14 14 15 17 18 18 17 16 16 16 16 15 13 13 14 14 14 13 13 13 14 16 15 14 12 11 11 12 11
11 12 15 15 16 18 14 13 12 12 14 17 16 14 15 15 17 18 19 19 18 16 16 15 15 15 15 16 16 14 12 12 13 14 14 13 13 12 12 12 15 16 17
10 8 6 6 7 7 9 9 9 13 15 14 13 15 15 16 18 20 20 20 18 17 17 18 18 18 18 17 16 14 13 13 12 12 12 12 13 12 13 15 17 18 16
8 8 9 10 10 10 15 14 12 13 13 13 14 15 15 16 18 19 18 17 17 17 17 18 19 21 22 21 19 16 15 16 14 14 14 13 13 13 14 16 19 21 20
9 10 11 12 12 11 11 11 12 13 14 14 13 13 13 14 14 13 15 16 17 16 17 19 20 18 16 18 22 21 20 18 16 16 16 15 15 15 18 18 20 19 21
11 10 11 13 11 10 11 12 13 14 15 15 15 14 14 14 16 14 14 16 15 17 18 20 22 21 21 20 17 19 19 18 16 18 18 17 14 14 13 15 17 21 22
12 11 11 13 12 11 12 13 13 13 15 16 16 15 12 13 13 15 15 14 13 15 18 19 22 23 23 20 18 19 20 20 20 17 17 18 17 15 13 14 17 21 22
15 13 14 12 13 14 14 12 9 11 11 12 14 11 12 14 16 16 14 12 15 18 20 19 19 22 23 22 22 21 22 22 21 21 24 21 19 20 19 18 18 20 20
15 15 16 17 14 15 15 10 8 5 5 5 10 10 10 12 15 19 20 21 23 25 26 24 22 22 24 25 26 25 23 24 25 29 27 27 25 21 22 22 19 20 18
20 19 19 19 17 13 8 12 12 14 11 11 12 11 14 14 16 13 15 21 27 28 29 30 27 26 26 28 29 29 27 26 25 28 30 30 31 27 25 27 26 24 22
15 19 21 20 18 15 15 14 20 20 18 16 14 17 18 20 21 23 21 21 22 22 23 28 31 31 30 29 30 31 29 28 28 32 32 34 30 34 31 31 32 29 28
16 17 21 22 22 21 19 22 24 23 26 27 23 19 24 28 30 30 31 30 29 25 26 25 24 27 30 30 28 29 30 31 29 33 35 32 32 35 30 28 31 34 32
14 17 13 20 23 18 15 11 11 13 16 18 20 21 26 28 27 34 33 33 31 31 26 21 19 24 26 27 27 30 32 33 35 36 36 39 38 39 33 31 32 35 36
18 19 14 9 8 11 12 13 12 17 18 16 19 23 20 27 29 32 33 33 30 27 21 18 18 17 21 26 28 30 31 29 33 41 47 44 41 39 39 37 39 41 42
19 16 16 15 15 12 13 19 19 19 19 18 20 20 20 22 27 32 32 25 18 20 18 20 20 16 19 21 25 29 31 35 41 44 46 43 34 39 40 41 39 41 43
15 21 20 22 22 20 16 21 25 27 27 26 27 27 28 28 28 30 26 29 26 26 24 23 28 23 22 29 28 37 34 34 39 53 59 50 46 44 47 46 44 45 44
26 22 25 23 27 27 27 28 28 30 35 28 24 27 27 28 26 24 24 27 29 27 26 27 32 30 29 32 35 37 37 48 43 40 42 35 42 51 66 66 55 53 52
13 18 17 17 17 17 19 23 32 27 23 26 25 27 33 29 35 25 21 25 29 31 29 30 31 29 36 45 41 36 39 42 42 40 28 35 39 41 36 43 44 57 58
Wind_Direction
257 259 264 271 270 239 246 237 227 233 241 102 173 181 193 289 344 265 205 228 253 257 205 200 219 245 243 244 250 237 239 249 258 268 278 280 282 280 286 278 275 281 273
265 267 267 259 254 223 247 223 224 242 250 242 217 215 259 285 286 259 235 256 254 233 221 233 242 244 240 236 243 248 246 246 258 263 263 271 279 282 282 276 268 256 248
262 263 269 278 275 245 249 232 228 239 247 262 265 257 255 263 279 264 255 259 250 220 227 232 241 247 258 261 259 255 251 248 253 251 247 254 261 272 270 252 251 222 214
266 264 266 268 270 267 249 244 237 240 249 256 264 268 275 273 274 257 234 242 248 243 234 238 249 253 256 253 247 240 240 238 236 241 247 255 258 247 210 215 211 236 222
267 261 269 269 270 263 267 243 227 246 252 257 267 279 283 280 258 235 238 249 247 243 244 242 241 243 246 244 245 244 241 239 240 250 257 264 255 239 233 234 243 322 286
272 258 267 269 270 254 251 228 224 235 253 259 267 270 270 266 242 230 245 245 245 242 240 240 239 241 242 244 243 242 241 242 247 246 248 258 232 228 255 282 287 271 257
276 268 275 261 290 275 187 213 224 239 250 257 263 267 258 241 238 245 250 244 245 244 243 246 246 240 242 245 246 244 240 235 239 243 243 244 235 249 251 251 259 253 254
293 278 272 257 236 237 238 218 257 265 256 257 258 247 235 237 238 242 246 247 244 245 254 254 250 246 240 240 242 238 233 233 237 237 232 237 240 245 247 249 253 257 250
272 262 263 262 259 242 238 261 260 252 239 241 237 231 237 240 241 243 248 249 246 249 251 244 237 238 239 236 238 245 245 239 236 237 234 229 233 236 239 237 237 243 251
280 264 264 265 254 251 244 248 244 243 240 237 234 237 239 235 241 249 252 256 256 254 249 243 238 234 236 237 238 234 225 226 229 229 230 231 230 227 233 235 240 248 261
271 266 270 279 255 227 219 239 259 244 238 235 239 246 248 249 252 254 254 255 256 251 243 239 237 234 230 232 234 231 229 228 228 231 223 225 225 230 245 255 261 266 270
247 237 257 260 266 249 247 254 249 247 252 256 253 253 258 258 255 255 253 250 246 246 248 247 249 244 244 234 230 228 231 236 233 227 226 227 239 248 256 270 276 265 265
245 247 259 268 270 265 252 250 254 260 265 264 262 260 259 254 252 249 247 241 243 245 246 248 253 253 252 248 240 228 230 236 233 231 231 237 254 270 280 285 280 284 277
245 253 268 281 276 265 264 262 262 264 262 259 260 259 258 259 245 233 237 246 250 249 246 246 250 245 242 242 241 224 235 239 233 236 244 255 263 280 278 280 286 286 285
248 257 271 281 273 259 252 255 260 262 262 261 258 256 242 244 248 242 228 237 250 255 250 247 249 248 245 242 239 231 233 230 236 242 257 254 263 263 282 303 301 284 280
250 255 265 272 268 258 251 251 261 263 264 258 258 253 256 274 278 279 272 264 261 264 260 261 261 254 250 245 236 234 232 240 241 246 253 263 263 264 276 291 307 301 283
250 257 262 269 275 259 235 252 262 296 328 325 301 284 269 277 273 267 267 265 265 265 273 274 268 259 255 251 246 238 246 244 254 249 246 255 251 263 273 281 295 291 289
251 252 256 263 276 266 251 257 262 257 277 290 296 262 257 256 267 264 264 264 268 275 277 277 276 271 263 252 249 245 244 246 253 257 267 253 255 261 269 275 277 284 289
244 248 251 254 261 266 258 254 267 272 274 266 265 276 264 280 269 277 264 269 277 280 282 276 274 273 269 259 249 244 246 252 259 264 274 274 277 273 271 275 271 272 274
249 248 248 248 249 256 262 261 248 258 266 272 276 270 285 283 270 275 276 281 275 276 278 280 277 268 261 257 255 248 251 257 268 276 278 277 271 269 271 265 270 265 267
273 262 262 252 252 255 263 254 255 261 278 286 282 297 300 283 282 278 285 273 268 271 281 272 284 271 266 258 250 249 255 262 270 275 276 275 280 261 265 270 267 267 268
269 261 248 235 225 221 248 274 283 288 297 299 298 300 287 288 286 289 276 274 270 257 255 262 263 265 260 265 267 268 268 280 278 276 273 270 272 271 270 270 269 269 271
257 234 230 251 252 254 279 281 275 285 293 297 294 289 289 292 300 300 277 271 254 245 256 256 262 261 268 273 281 277 272 276 275 280 291 286 265 264 265 270 271 270 270
232 243 256 266 266 279 279 280 279 275 270 267 274 282 296 297 293 304 274 267 269 267 262 262 270 254 267 279 282 277 270 281 292 281 278 287 268 266 264 266 271 277 273
233 232 242 252 259 259 266 271 279 284 280 283 285 290 284 289 285 286 287 265 267 272 269 276 283 268 278 284 275 273 280 284 281 295 277 276 279 282 269 275 273 275 270
277 278 246 237 222 238 258 272 277 277 292 268 277 290 282 270 291 284 262 252 254 257 261 261 262 278 275 271 276 287 294 295 295 293 279 283 290 295 291 294 292 264 266
Height
3143 3144 3141 3142 3146 3149 3148 3151 3153 3151 3147 3144 3146 3146 3145 3150 3148 3148 3153 3154 3156 3158 3158 3160 3163 3165 3166 3168 3169 3169 3170 3171 3173 3173 3174 3175 3176 3176 3177 3178 3178 3177 3177
3135 3133 3131 3133 3135 3140 3142 3145 3146 3145 3144 3143 3145 3145 3145 3145 3146 3149 3150 3153 3153 3154 3156 3158 3158 3161 3162 3164 3164 3164 3165 3166 3168 3170 3172 3171 3171 3172 3172 3174 3175 3175 3174
3129 3129 3126 3122 3116 3132 3137 3138 3140 3141 3140 3141 3142 3144 3143 3144 3144 3144 3147 3148 3149 3150 3153 3154 3154 3155 3157 3158 3159 3160 3161 3162 3164 3166 3167 3169 3168 3169 3167 3169 3171 3171 3172
3123 3125 3124 3124 3122 3128 3129 3132 3134 3137 3136 3138 3138 3140 3140 3140 3140 3141 3143 3144 3146 3147 3148 3151 3152 3152 3154 3155 3156 3157 3158 3159 3160 3161 3163 3163 3164 3165 3165 3167 3169 3168 3169
3118 3117 3116 3117 3118 3118 3122 3120 3130 3132 3132 3133 3134 3135 3135 3135 3135 3137 3139 3141 3142 3143 3145 3147 3149 3150 3151 3152 3152 3153 3155 3156 3157 3158 3159 3159 3160 3161 3162 3163 3165 3167 3168
3112 3112 3112 3112 3114 3114 3113 3111 3123 3126 3126 3128 3128 3129 3131 3131 3131 3133 3135 3136 3139 3141 3142 3143 3146 3147 3147 3148 3149 3149 3151 3153 3154 3154 3154 3155 3158 3158 3160 3162 3163 3166 3165
3107 3107 3108 3108 3107 3103 3088 3111 3118 3119 3120 3121 3121 3124 3125 3127 3128 3130 3131 3132 3134 3136 3138 3139 3141 3143 3143 3144 3145 3146 3146 3148 3149 3151 3152 3153 3155 3156 3158 3159 3161 3162 3163
3105 3104 3104 3102 3105 3107 3110 3112 3114 3114 3114 3114 3117 3119 3121 3123 3125 3126 3128 3129 3131 3133 3133 3134 3136 3138 3139 3140 3141 3142 3143 3145 3146 3148 3149 3151 3152 3153 3154 3155 3157 3158 3160
3101 3100 3100 3100 3100 3102 3106 3109 3110 3108 3109 3110 3113 3115 3117 3119 3121 3123 3124 3126 3127 3128 3129 3130 3132 3133 3134 3136 3138 3139 3140 3142 3143 3145 3146 3147 3148 3149 3150 3151 3153 3154 3156
3098 3097 3097 3098 3097 3098 3100 3102 3103 3104 3105 3108 3110 3111 3113 3115 3117 3119 3121 3122 3123 3123 3125 3127 3128 3129 3131 3132 3133 3135 3136 3138 3140 3141 3142 3143 3144 3145 3145 3147 3148 3149 3150
3094 3094 3094 3094 3094 3095 3096 3098 3099 3102 3103 3105 3106 3107 3109 3111 3112 3114 3115 3117 3118 3119 3121 3123 3124 3125 3126 3128 3129 3130 3132 3133 3135 3137 3139 3140 3141 3141 3142 3142 3142 3142 3142
3092 3093 3093 3094 3094 3094 3094 3096 3097 3099 3100 3101 3102 3103 3104 3106 3108 3108 3109 3111 3112 3114 3117 3118 3119 3120 3121 3122 3123 3125 3127 3129 3131 3133 3135 3138 3138 3139 3139 3138 3137 3135 3134
3089 3090 3091 3091 3091 3090 3091 3092 3094 3094 3096 3097 3098 3099 3100 3101 3102 3104 3105 3107 3108 3110 3112 3112 3113 3114 3116 3117 3118 3120 3121 3124 3128 3130 3132 3133 3133 3133 3132 3131 3130 3128 3127
3086 3086 3087 3087 3087 3086 3087 3089 3090 3091 3092 3092 3093 3094 3095 3096 3097 3099 3100 3101 3103 3105 3106 3107 3108 3109 3110 3111 3112 3116 3118 3121 3123 3125 3126 3127 3127 3126 3125 3125 3122 3120 3118
3083 3083 3084 3084 3084 3084 3084 3084 3086 3087 3088 3088 3089 3089 3090 3091 3093 3094 3096 3098 3099 3101 3101 3102 3103 3104 3105 3106 3109 3111 3113 3115 3116 3119 3119 3120 3121 3120 3120 3118 3117 3115 3113
3079 3080 3081 3081 3080 3080 3080 3081 3082 3082 3083 3084 3084 3084 3084 3086 3087 3088 3090 3092 3095 3096 3095 3097 3099 3099 3100 3101 3103 3105 3108 3110 3111 3112 3111 3112 3113 3113 3112 3111 3109 3108 3107
3076 3077 3077 3077 3077 3075 3075 3075 3077 3079 3080 3082 3083 3083 3083 3084 3084 3084 3086 3087 3088 3089 3088 3091 3092 3094 3094 3095 3097 3099 3101 3102 3103 3103 3103 3103 3104 3103 3104 3103 3101 3101 3099
3069 3071 3072 3072 3071 3070 3070 3072 3075 3077 3078 3080 3080 3080 3081 3080 3080 3079 3079 3079 3079 3079 3080 3082 3083 3084 3086 3088 3090 3091 3092 3093 3093 3092 3093 3093 3092 3092 3093 3093 3093 3091 3090
3061 3062 3064 3065 3066 3065 3066 3066 3066 3069 3071 3073 3075 3076 3076 3075 3074 3074 3074 3074 3074 3074 3074 3073 3074 3075 3077 3078 3080 3082 3084 3084 3086 3085 3085 3085 3083 3083 3082 3084 3084 3083 3082
3055 3055 3056 3057 3058 3058 3060 3061 3062 3063 3065 3066 3067 3068 3069 3067 3067 3067 3067 3067 3067 3067 3067 3066 3066 3067 3068 3068 3071 3075 3077 3079 3079 3078 3078 3075 3075 3075 3073 3073 3074 3074 3072
3051 3052 3052 3051 3052 3055 3056 3056 3057 3058 3058 3059 3060 3061 3062 3060 3058 3059 3059 3057 3058 3059 3060 3060 3059 3059 3061 3063 3064 3066 3068 3069 3070 3068 3067 3066 3067 3064 3063 3061 3062 3062 3060
3046 3048 3049 3049 3048 3048 3049 3051 3051 3052 3052 3052 3053 3054 3053 3053 3050 3049 3049 3048 3049 3051 3051 3051 3051 3051 3053 3055 3056 3057 3056 3056 3057 3054 3052 3052 3053 3053 3053 3051 3050 3049 3047
3041 3042 3042 3045 3044 3044 3044 3044 3044 3045 3046 3047 3048 3049 3048 3046 3043 3041 3041 3040 3039 3041 3043 3042 3042 3041 3044 3045 3046 3046 3045 3044 3041 3039 3038 3028 3033 3035 3036 3036 3036 3035 3033
3029 3036 3036 3037 3036 3035 3035 3036 3038 3037 3037 3037 3039 3040 3039 3036 3033 3031 3029 3031 3033 3034 3033 3032 3032 3032 3032 3034 3036 3034 3030 3026 3030 3029 3027 3026 3025 3021 3018 3018 3019 3018 3016
3028 3031 3034 3033 3031 3029 3029 3029 3028 3028 3027 3027 3027 3028 3027 3029 3028 3026 3024 3024 3024 3024 3024 3024 3023 3022 3021 3022 3024 3021 3021 3021 3018 3015 3013 3013 3012 3008 2999 2995 2988 3000 2998
3022 3023 3025 3026 3024 3025 3025 3024 3023 3021 3020 3019 3018 3016 3017 3017 3016 3014 3013 3014 3014 3012 3011 3011 3011 3012 3013 3015 3015 3012 3009 3008 3007 3007 3003 3000 2996 2990 2988 2984 2980 2972 2975